Date String (YYYY-MM-DD hh:mm:ss) UTC,Instrument flags,absolute air pressure of the measurement (hPa),sample flow rate (lpm),inlet stack bypass flow (lpm),air temperature of the measurement (°C),ambient temperature measured by the external sensor (°C),aerosol sample conditioner tube jacket temperature (°C),OPC LED temperature (°C),internal box temperature (°C),relative humidity of the measurement (%),span deviation,mass concentration of particles derived from Lorenz-Mie calculation of OPC scattering (μg/m³),mass concentration of particles derived from Lorenz-Mie calculation of OPC scattering (μg/m³),mass concentration of particles derived from Lorenz-Mie calculation of OPC scattering (μg/m³)
DateTimeUTC,F1_M11,P_M11,Q1_M11,Q2_M11,T1_M11,T2_M11,T3_M11,T4_M11,T5_M11,U1_M11,ZSPAN_M11,X0_M11,X2_M11,X1_M11
2024-05-10 14:00:00,SystemResetWarning,0837.2,5.00,000.00,025.3,024.8,000.0,033.5,027.1,023.9,0000.0,0006.65,0004.07,0003.68
2024-05-10 14:01:00,SystemResetWarning,0837.2,5.01,000.00,025.3,024.8,000.0,033.6,027.1,023.8,0000.0,0006.62,0004.07,0003.69
2024-05-10 14:02:00,SystemResetWarning,0837.1,5.01,000.00,025.3,024.9,000.0,033.6,027.2,023.6,0000.0,0006.45,0004.07,0003.68
2024-05-10 14:03:00,SystemResetWarning,0837.1,5.00,000.00,025.4,024.9,000.0,033.6,027.2,023.7,0000.0,0005.98,0004.03,0003.68
2024-05-10 14:04:00,SystemResetWarning,0837.1,5.00,000.00,025.4,024.9,000.0,033.6,027.2,024.0,0000.0,0005.82,0004.00,0003.66
2024-05-10 14:05:00,SystemResetWarning,0837.1,5.00,000.00,025.4,025.0,000.0,033.6,027.3,023.9,0000.0,0006.06,0003.97,0003.64
2024-05-10 14:06:00,SystemResetWarning,0837.2,4.99,000.00,025.5,025.0,000.0,033.6,027.3,023.9,0000.0,0006.57,0003.92,0003.64
2024-05-10 14:07:00,SystemResetWarning,0837.2,5.00,000.00,025.5,025.0,000.0,033.7,027.3,023.8,0000.0,0007.30,0003.92,0003.64
2024-05-10 14:08:00,SystemResetWarning,0837.1,4.99,000.00,025.5,025.0,000.0,033.7,027.3,023.8,0000.0,0007.30,0003.93,0003.67
2024-05-10 14:09:00,SystemResetWarning,0837.1,5.01,000.00,025.5,025.1,000.0,033.7,027.4,023.7,0000.0,0007.30,0003.95,0003.69
2024-05-10 14:10:00,SystemResetWarning,0837.1,5.01,000.00,025.6,025.1,000.0,033.7,027.4,023.7,0000.0,0007.35,0003.98,0003.72
2024-05-10 14:11:00,SystemResetWarning,0837.1,5.01,000.00,025.6,025.1,000.0,033.8,027.4,023.6,0000.0,0007.37,0004.01,0003.74
2024-05-10 14:12:00,SystemResetWarning,0837.1,5.00,000.00,025.6,025.1,000.0,033.8,027.4,023.8,0000.0,0007.62,0004.04,0003.76
2024-05-10 14:13:00,SystemResetWarning,0837.2,5.00,000.00,025.6,025.2,000.0,033.8,027.5,023.8,0000.0,0007.92,0004.06,0003.79
2024-05-10 14:14:00,SystemResetWarning,0837.2,4.99,000.00,025.7,025.2,000.0,033.8,027.5,023.8,0000.0,0008.02,0004.07,0003.80
2024-05-10 14:15:00,SystemResetWarning,0837.2,4.99,000.00,025.7,025.2,000.0,033.9,027.5,023.8,0000.0,0008.11,0004.08,0003.83
2024-05-10 14:16:00,SystemResetWarning,0837.2,5.00,000.00,025.7,025.2,000.0,033.9,027.5,024.2,0000.0,0008.02,0004.12,0003.86
2024-05-10 14:17:00,SystemResetWarning,0837.2,5.01,000.00,025.7,025.2,000.0,033.9,027.6,024.1,0000.0,0007.69,0004.15,0003.88
2024-05-10 14:18:00,SystemResetWarning,0837.2,5.00,000.00,025.8,025.3,000.0,033.9,027.6,024.2,0000.0,0007.33,0004.19,0003.91
2024-05-10 14:19:00,SystemResetWarning,0837.2,5.00,000.00,025.8,025.3,000.0,033.9,027.6,024.3,0000.0,0007.42,0004.22,0003.93
2024-05-10 14:20:00,SystemResetWarning,0837.2,5.00,000.00,025.8,025.3,000.0,034.0,027.6,024.0,0000.0,0007.62,0004.25,0003.95
2024-05-10 14:21:00,SystemResetWarning,0837.2,5.00,000.00,025.8,025.3,000.0,034.0,027.6,023.7,0000.0,0007.62,0004.25,0003.95
2024-05-10 14:22:00,SystemResetWarning,0837.2,5.00,000.00,025.8,025.3,000.0,034.0,027.6,023.7,0000.0,0007.64,0004.25,0003.99
2024-05-10 14:23:00,SystemResetWarning,0837.2,5.00,000.00,025.8,025.3,000.0,034.0,027.6,023.4,0000.0,0007.87,0004.28,0004.03
2024-05-10 14:24:00,SystemResetWarning,0837.2,5.00,000.00,025.9,025.3,000.0,034.0,027.6,023.3,0000.0,0007.50,0004.35,0004.08
2024-05-10 14:25:00,SystemResetWarning,0837.2,5.01,000.00,025.9,025.4,000.0,034.1,027.6,023.2,0000.0,0007.55,0004.41,0004.13
2024-05-10 14:26:00,SystemResetWarning,0837.2,5.00,000.00,025.9,025.4,000.0,034.1,027.6,023.4,0000.0,0007.51,0004.49,0004.19
2024-05-10 14:27:00,SystemResetWarning,0837.2,5.00,000.00,025.9,025.4,000.0,034.1,027.7,023.5,0000.0,0007.60,0004.57,0004.24
2024-05-10 14:28:00,SystemResetWarning,0837.2,4.99,000.00,025.9,025.4,000.0,034.1,027.7,023.6,0000.0,0007.68,0004.64,0004.29
2024-05-10 14:29:00,SystemResetWarning,0837.2,5.00,000.00,025.9,025.4,000.0,034.1,027.7,023.3,0000.0,0007.70,0004.69,0004.36
2024-05-10 14:30:00,SystemResetWarning,0837.2,5.00,000.00,026.0,025.4,000.0,034.1,027.7,023.4,0000.0,0007.86,0004.74,0004.42
2024-05-10 14:31:00,SystemResetWarning,0837.2,4.99,000.00,026.0,025.4,000.0,034.1,027.7,023.3,0000.0,0008.12,0004.80,0004.48
2024-05-10 14:32:00,SystemResetWarning,0837.2,5.00,000.00,026.0,025.4,000.0,034.2,027.7,023.3,0000.0,0008.09,0004.84,0004.54
2024-05-10 14:33:00,SystemResetWarning,0837.2,5.00,000.00,026.0,025.4,000.0,034.2,027.7,023.5,0000.0,0008.11,0004.89,0004.58
2024-05-10 14:34:00,SystemResetWarning,0837.2,5.01,000.00,026.0,025.5,000.0,034.2,027.8,023.8,0000.0,0008.00,0004.95,0004.63
2024-05-10 14:35:00,SystemResetWarning,0837.2,5.01,000.00,026.0,025.5,000.0,034.2,027.8,023.2,0000.0,0007.91,0004.96,0004.67
2024-05-10 14:36:00,SystemResetWarning,0837.2,5.00,000.00,026.0,025.5,000.0,034.2,027.8,022.9,0000.0,0007.93,0005.00,0004.72
2024-05-10 14:37:00,SystemResetWarning,0837.2,4.99,000.00,026.0,025.5,000.0,034.3,027.8,022.9,0000.0,0007.94,0005.03,0004.77
2024-05-10 14:38:00,SystemResetWarning,0837.2,4.99,000.00,026.0,025.5,000.0,034.3,027.8,022.7,0000.0,0007.96,0005.06,0004.79
2024-05-10 14:39:00,SystemResetWarning,0837.2,5.01,000.00,026.0,025.5,000.0,034.3,027.8,022.5,0000.0,0007.94,0005.09,0004.83
2024-05-10 14:40:00,SystemResetWarning,0837.2,5.01,000.00,026.0,025.5,000.0,034.3,027.8,022.8,0000.0,0007.99,0005.12,0004.85
2024-05-10 14:41:00,SystemResetWarning,0837.2,5.01,000.00,026.1,025.5,000.0,034.3,027.8,022.2,0000.0,0008.00,0005.15,0004.86
2024-05-10 14:42:00,SystemResetWarning,0837.2,5.00,000.00,026.1,025.5,000.0,034.3,027.8,022.7,0000.0,0007.76,0005.14,0004.84
2024-05-10 14:43:00,SystemResetWarning,0837.2,4.99,000.00,026.1,025.5,000.0,034.3,027.9,022.9,0000.0,0008.04,0005.17,0004.85
2024-05-10 14:44:00,SystemResetWarning,0837.2,4.99,000.00,026.1,025.5,000.0,034.3,027.9,023.0,0000.0,0008.32,0005.22,0004.87
2024-05-10 14:45:00,SystemResetWarning,0837.2,5.02,000.00,026.1,025.6,000.0,034.4,027.9,023.2,0000.0,0008.26,0005.22,0004.87
2024-05-10 14:46:00,SystemResetWarning,0837.2,4.99,000.00,026.1,025.6,000.0,034.4,027.9,022.7,0000.0,0008.93,0005.22,0004.86
2024-05-10 14:47:00,SystemResetWarning,0837.2,4.99,000.00,026.1,025.6,000.0,034.4,027.9,022.5,0000.0,0009.00,0005.21,0004.84
2024-05-10 14:48:00,SystemResetWarning,0837.2,5.00,000.00,026.1,025.6,000.0,034.4,027.9,022.3,0000.0,0008.97,0005.19,0004.82
2024-05-10 14:49:00,SystemResetWarning,0837.2,5.01,000.00,026.2,025.6,000.0,034.4,027.9,022.0,0000.0,0008.95,0005.17,0004.80
2024-05-10 14:50:00,SystemResetWarning,0837.2,5.00,000.00,026.2,025.6,000.0,034.4,027.9,021.9,0000.0,0008.91,0005.12,0004.77
2024-05-10 14:51:00,SystemResetWarning,0837.2,4.99,000.00,026.2,025.6,000.0,034.4,027.9,021.8,0000.0,0008.86,0005.07,0004.73
2024-05-10 14:52:00,SystemResetWarning,0837.2,5.00,000.00,026.2,025.6,000.0,034.4,027.9,021.9,0000.0,0008.74,0005.00,0004.69
2024-05-10 14:53:00,SystemResetWarning,0837.2,5.00,000.00,026.2,025.6,000.0,034.4,027.9,021.9,0000.0,0008.60,0004.96,0004.66
2024-05-10 14:54:00,SystemResetWarning,0837.2,4.99,000.00,026.2,025.6,000.0,034.4,028.0,022.1,0000.0,0008.33,0004.86,0004.57
2024-05-10 14:55:00,SystemResetWarning,0837.2,4.99,000.00,026.2,025.6,000.0,034.5,028.0,021.9,0000.0,0007.91,0004.74,0004.48
2024-05-10 14:56:00,SystemResetWarning,0837.2,5.00,000.00,026.2,025.6,000.0,034.5,028.0,022.2,0000.0,0007.83,0004.66,0004.40
2024-05-10 14:57:00,SystemResetWarning,0837.2,5.00,000.00,026.2,025.7,000.0,034.5,028.0,021.7,0000.0,0007.23,0004.60,0004.34
2024-05-10 14:58:00,SystemResetWarning,0837.2,5.00,000.00,026.2,025.7,000.0,034.5,028.0,022.0,0000.0,0006.84,0004.55,0004.26
2024-05-10 14:59:00,SystemResetWarning,0837.2,5.01,000.00,026.2,025.7,000.0,034.5,028.0,021.9,0000.0,0006.80,0004.50,0004.19
